Flag for Cambodia Weather past 2 weeks in Phnom Penh, Cambodia

Now
84 °F

Passing clouds.


Feels Like: 92 °F
Forecast: 80 / 94 °F
Wind: 6 mph from West

Location: Phnom-Penh / Pochentong

Current Time: Jul 3, 2015 at 1:56:22 AM

Latest Report: Jul 3, 2015 at 1:00 AM


Visibility: 6 mi

Pressure: 29.71 "Hg

Humidity: 74%

Dew point: 75 °F

Location of Phnom PenhLocation

Historic Weather in Phnom Penh — Graph

°F

Phnom Penh temperature yesterday

Maximum temperature yesterday: 97 °F (at 1:30 PM)
Minimum temperature yesterday: 84 °F (at 12:00 AM)
Average temperature yesterday: 90 °F

Past Weeks' High & Low Weather Summary

 TemperatureHumidityPressure
High133 °F (Jun 29, 4:00 PM)100% (Jun 23, 5:30 PM)29.89 "Hg (Jun 23, 5:30 PM)
Low77 °F (Jun 23, 5:30 PM)15% (Jun 29, 4:00 PM)29.62 "Hg (Jun 21, 3:00 PM)
Average86 °F67%29.75 "Hg
* Reported Midnight between Jun 17 and Jun 18 — Jul 3 12:30 AM, Phnom Penh, Weather by CustomWeather, © 2015

Note: Actual official high and low records may vary slightly from our data, if they occured in-between our weather recording intervals... More about our weather records

Advertising

Phnom Penh weather history for previous 24 hours

 ConditionsComfort  
Time TempWeatherWind HumidityBarometerVisibility
12:30 AM
Fri, Jul 3
84 °FPassing clouds.7 mph74%29.74 "Hg6 mi
12:00 AM84 °FPassing clouds.6 mph74%29.74 "Hg6 mi
11:30 PM
Thu, Jul 2
86 °FPassing clouds.6 mph70%29.74 "Hg6 mi
11:00 PM86 °FPassing clouds.8 mph70%29.74 "Hg6 mi
10:30 PM84 °FPassing clouds.9 mph74%29.74 "Hg6 mi
10:00 PM86 °FPassing clouds.8 mph70%29.74 "Hg6 mi
9:30 PM86 °FPassing clouds.9 mph70%29.74 "Hg6 mi
9:00 PM86 °FPassing clouds.10 mph70%29.74 "Hg6 mi
8:30 PM88 °FPassing clouds.9 mph66%29.71 "Hg6 mi
8:00 PM88 °FPassing clouds.9 mph66%29.71 "Hg6 mi
7:30 PMN/APassing clouds.N/AN/AN/A6 mi
7:00 PM90 °FPassing clouds.9 mph63%29.68 "Hg6 mi
6:30 PM91 °FPassing clouds.10 mph56%29.65 "HgN/A
6:00 PM91 °FPartly sunny.12 mph56%29.65 "HgN/A
5:30 PM93 °FPartly sunny.14 mph53%29.65 "HgN/A
5:00 PM93 °FPartly sunny.13 mph53%29.65 "HgN/A
4:00 PM93 °FBroken clouds.13 mph56%29.65 "HgN/A
3:30 PM84 °FRain. Broken clouds.12 mph70%29.68 "Hg2 mi
3:00 PM97 °FScattered clouds.14 mph47%29.65 "HgN/A
2:30 PM95 °FScattered clouds.14 mph50%29.68 "HgN/A
2:00 PM97 °FScattered clouds.13 mph47%29.68 "HgN/A
1:30 PM97 °FScattered clouds.13 mph47%29.68 "HgN/A
1:00 PM95 °FScattered clouds.15 mph50%29.71 "HgN/A
12:30 PM95 °FScattered clouds.14 mph50%29.74 "HgN/A
12:00 PM95 °FScattered clouds.13 mph50%29.74 "HgN/A
11:30 AM95 °FScattered clouds.14 mph50%29.77 "HgN/A
11:00 AM93 °FScattered clouds.15 mph53%29.77 "HgN/A
10:30 AM93 °FScattered clouds.13 mph53%29.77 "HgN/A
10:00 AM91 °FPassing clouds.17 mph56%29.77 "HgN/A
9:30 AM91 °FPassing clouds.14 mph56%29.77 "HgN/A
9:00 AM91 °FPassing clouds.10 mph56%29.77 "HgN/A
8:30 AM90 °FPassing clouds.13 mph59%29.77 "HgN/A
8:00 AM88 °FPassing clouds.10 mph62%29.77 "HgN/A
7:30 AM86 °FPassing clouds.7 mph66%29.77 "HgN/A
7:00 AM84 °FPassing clouds.7 mph74%29.77 "Hg6 mi
6:30 AM84 °FPassing clouds.7 mph70%29.77 "Hg6 mi
6:00 AM84 °FPassing clouds.6 mph70%29.74 "Hg6 mi
1:00 AM84 °FPassing clouds.6 mph70%29.77 "Hg5 mi
Weather by CustomWeather, © 2015

See weather overviewHow to use our weather pages